Airport Information

KPAE - Snohomish Co Airport

KPAE 191753Z 24005KT 10SM OVC070 13/08 A3020 RMK AO2 SLP228 60001 T01330083 10139 20111 58004


  • General Information

  • Coordinates: N 47°54'22"/ W 122°16'53"
  • Location: N/A
  • Surveyed Elevation: 606 MSL

Operations

Flow Name Active Runways Conditions

Green background denotes normal operations.


Common Frequencies

Callsign Frequency Position Name

More at the Document Center


Charts